,,,PA_Meas_PMT16A,,PR_Meas_QMR101_102,,RH_Meas_QMH101,,SR_Meas_QMS101,,TA_Meas_QMH101,,GenWind,,GenWind,
date,time,status,PA,status,PR,status,RH,status,SR,status,TA,status,DirAvg,status,SpdAvg,
2010-10-06, 00:00:04,VALID,1001.4,VALID,0,VALID,60.4512,VALID,1021.52,VALID,31.1473,VALID,156,VALID,3.07773,
2010-10-06, 00:01:04,VALID,1001.38,VALID,0,VALID,63.6554,VALID,1020.21,VALID,31.1863,VALID,120,VALID,2.86094,
2010-10-06, 00:02:04,VALID,1001.37,VALID,0,VALID,60.6877,VALID,1017.8,VALID,31.0521,VALID,132,VALID,4.51953,
2010-10-06, 00:03:04,VALID,1001.36,VALID,0,VALID,63.4494,VALID,1012.77,VALID,31.0521,VALID,133,VALID,2.52539,
2010-10-06, 00:04:04,VALID,1001.31,VALID,0,VALID,65.1125,VALID,1004.32,VALID,31.1106,VALID,139,VALID,2.31875,
2010-10-06, 00:05:04,VALID,1001.3,VALID,0,VALID,61.6108,VALID,1006.64,VALID,31.1863,VALID,141,VALID,2.45703,
2010-10-06, 00:06:04,VALID,1001.3,VALID,0,VALID,62.122,VALID,994.568,VALID,31.3424,VALID,149,VALID,2.9875,
2010-10-06, 00:07:04,VALID,1001.29,VALID,0,VALID,60.8251,VALID,995.875,VALID,31.2643,VALID,133,VALID,2.98008,
2010-10-06, 00:08:04,VALID,1001.28,VALID,0,VALID,60.5886,VALID,997.484,VALID,31.2082,VALID,114,VALID,3.21719,
2010-10-06, 00:09:04,VALID,1001.26,VALID,0,VALID,61.5803,VALID,997.283,VALID,31.4009,VALID,135,VALID,2.84961,
2010-10-06, 00:10:04,VALID,1001.26,VALID,0,VALID,60.4284,VALID,995.674,VALID,31.4204,VALID,140,VALID,3.01172,
2010-10-06, 00:11:04,VALID,1001.28,VALID,0,VALID,60.97,VALID,996.679,VALID,31.3643,VALID,148,VALID,3.59453,
2010-10-06, 00:12:04,VALID,1001.24,VALID,0,VALID,61.2981,VALID,997.685,VALID,31.3643,VALID,144,VALID,2.85625,
2010-10-06, 00:13:04,VALID,1001.25,VALID,0,VALID,62.7857,VALID,994.467,VALID,31.3034,VALID,144,VALID,2.93281,
2010-10-06, 00:14:04,VALID,1001.22,VALID,0,VALID,61.7787,VALID,991.45,VALID,31.4033,VALID,185,VALID,2.63828,
2010-10-06, 00:15:04,VALID,1001.22,VALID,0,VALID,61.7482,VALID,992.757,VALID,31.2667,VALID,136,VALID,3.62539,
2010-10-06, 00:16:04,VALID,1001.18,VALID,0,VALID,61.3591,VALID,990.143,VALID,31.2472,VALID,147,VALID,2.87539,
2010-10-06, 00:17:04,VALID,1001.23,VALID,0,VALID,62.7781,VALID,994.97,VALID,31.2667,VALID,139,VALID,4.23242,
2010-10-06, 00:18:04,VALID,1001.18,VALID,0,VALID,63.3502,VALID,990.847,VALID,31.2448,VALID,123,VALID,1.39609,
2010-10-06, 00:19:04,VALID,1001.14,VALID,0,VALID,61.6032,VALID,992.858,VALID,31.1692,VALID,116,VALID,2.92695,
2010-10-06, 00:20:04,VALID,1001.12,VALID,0,VALID,63.129,VALID,997.685,VALID,31.1887,VALID,150,VALID,3.47695,
2010-10-06, 00:21:04,VALID,1001.14,VALID,0,VALID,62.45,VALID,992.456,VALID,31.0935,VALID,137,VALID,3.21523,
2010-10-06, 00:22:04,VALID,1001.11,VALID,0,VALID,61.3515,VALID,993.26,VALID,31.2105,VALID,141,VALID,2.32383,
2010-10-06, 00:23:04,VALID,1001.11,VALID,0,VALID,60.8022,VALID,987.729,VALID,31.1106,VALID,165,VALID,3.77578,
2010-10-06, 00:24:04,VALID,1001.11,VALID,0,VALID,64.2657,VALID,988.031,VALID,31.2496,VALID,137,VALID,2.66875,
2010-10-06, 00:25:04,VALID,1001.07,VALID,0,VALID,61.0616,VALID,981.595,VALID,31.2496,VALID,163,VALID,3.09531,
2010-10-06, 00:26:04,VALID,1001.06,VALID,0,VALID,62.2746,VALID,976.969,VALID,31.1715,VALID,135,VALID,3.55352,
2010-10-06, 00:27:04,VALID,1001.06,VALID,0,VALID,62.8772,VALID,981.897,VALID,31.2496,VALID,157,VALID,3.83164,
2010-10-06, 00:28:04,VALID,1001.09,VALID,0,VALID,62.0075,VALID,979.383,VALID,31.2277,VALID,115,VALID,3.51953,
2010-10-06, 00:29:04,VALID,1001.03,VALID,0,VALID,59.8486,VALID,980.589,VALID,31.4618,VALID,118,VALID,2.76836,
2010-10-06, 00:30:04,VALID,1001.1,VALID,0,VALID,62.4805,VALID,976.969,VALID,31.4228,VALID,148,VALID,2.6332,
2010-10-06, 00:31:04,VALID,1001.05,VALID,0,VALID,59.1086,VALID,977.371,VALID,31.3447,VALID,150,VALID,4.33477,
2010-10-06, 00:32:04,VALID,1001.06,VALID,0,VALID,60.2682,VALID,976.164,VALID,31.3252,VALID,121,VALID,2.78828,
2010-10-06, 00:33:04,VALID,1001.07,VALID,0,VALID,60.764,VALID,973.65,VALID,31.5008,VALID,128,VALID,2.10195,
2010-10-06, 00:34:04,VALID,1001.07,VALID,0,VALID,59.6578,VALID,977.17,VALID,31.6203,VALID,111,VALID,2.91172,
2010-10-06, 00:35:04,VALID,1001.02,VALID,0,VALID,61.4735,VALID,973.248,VALID,31.6179,VALID,159,VALID,2.5082,
2010-10-06, 00:36:04,VALID,1001,VALID,0,VALID,59.5282,VALID,966.309,VALID,31.557,VALID,75,VALID,1.73125,
2010-10-06, 00:37:04,VALID,1001.03,VALID,0,VALID,60.8556,VALID,962.488,VALID,31.6545,VALID,147,VALID,3.2418,
2010-10-06, 00:38:04,VALID,1001.01,VALID,0,VALID,58.9178,VALID,961.885,VALID,31.4399,VALID,116,VALID,2.75273,
2010-10-06, 00:39:04,VALID,1001.03,VALID,0,VALID,59.6044,VALID,958.566,VALID,31.3838,VALID,133,VALID,2.73711,
2010-10-06, 00:40:04,VALID,1001.09,VALID,0,VALID,61.1531,VALID,960.879,VALID,31.596,VALID,112,VALID,2.79375,
2010-10-06, 00:41:04,VALID,1001.04,VALID,0,VALID,59.5129,VALID,957.761,VALID,31.5399,VALID,74,VALID,2.5332,
2010-10-06, 00:42:04,VALID,1000.99,VALID,0,VALID,58.9712,VALID,954.946,VALID,31.518,VALID,110,VALID,2.23047,
2010-10-06, 00:43:04,VALID,1000.99,VALID,0,VALID,60.4665,VALID,955.348,VALID,31.5399,VALID,110,VALID,1.35781,
2010-10-06, 00:44:04,VALID,1000.98,VALID,0,VALID,58.7042,VALID,954.845,VALID,31.7935,VALID,118,VALID,2.26172,
2010-10-06, 00:45:04,VALID,1000.95,VALID,0,VALID,60.4436,VALID,953.739,VALID,31.7521,VALID,147,VALID,1.43555,
2010-10-06, 00:46:04,VALID,1000.94,VALID,0,VALID,59.3908,VALID,953.739,VALID,31.8887,VALID,100,VALID,3.36562,
2010-10-06, 00:47:04,VALID,1000.96,VALID,0,VALID,58.0024,VALID,952.834,VALID,31.735,VALID,119,VALID,3.00859,
2010-10-06, 00:48:04,VALID,1000.89,VALID,0,VALID,57.7277,VALID,948.811,VALID,31.557,VALID,101,VALID,2.17305,
2010-10-06, 00:49:04,VALID,1000.89,VALID,0,VALID,59.8562,VALID,946.901,VALID,31.5399,VALID,110,VALID,2.17539,
2010-10-06, 00:50:04,VALID,1000.91,VALID,0,VALID,59.8943,VALID,946.599,VALID,31.557,VALID,118,VALID,2.89609,
2010-10-06, 00:51:04,VALID,1000.86,VALID,0,VALID,57.9719,VALID,942.576,VALID,31.5399,VALID,110,VALID,2.06914,
2010-10-06, 00:52:04,VALID,1000.83,VALID,0,VALID,60.0545,VALID,939.56,VALID,31.6788,VALID,132,VALID,1.74336,
2010-10-06, 00:53:04,VALID,1000.78,VALID,0,VALID,58.7042,VALID,935.034,VALID,31.8154,VALID,118,VALID,1.94297,
2010-10-06, 00:54:04,VALID,1000.81,VALID,0,VALID,58.1855,VALID,933.727,VALID,31.8521,VALID,96,VALID,1.41875,
2010-10-06, 00:55:04,VALID,1000.81,VALID,0,VALID,59.3985,VALID,926.788,VALID,31.874,VALID,92,VALID,1.99883,
2010-10-06, 00:56:04,VALID,1000.83,VALID,0,VALID,61.3515,VALID,925.782,VALID,31.874,VALID,108,VALID,2.04648,
2010-10-06, 00:57:04,VALID,1000.82,VALID,0,VALID,57.9566,VALID,928.297,VALID,31.7326,VALID,124,VALID,3.24961,
2010-10-06, 00:58:04,VALID,1000.86,VALID,0,VALID,58.277,VALID,926.889,VALID,31.813,VALID,100,VALID,2.91328,
2010-10-06, 00:59:04,VALID,1000.84,VALID,0,VALID,58.4601,VALID,927.593,VALID,31.5984,VALID,126,VALID,2.50664,
2010-10-06, 01:00:04,VALID,1000.81,VALID,0,VALID,61.115,VALID,932.721,VALID,31.674,VALID,130,VALID,2.17031,
2010-10-06, 01:01:04,VALID,1000.75,VALID,0,VALID,59.284,VALID,931.012,VALID,31.6179,VALID,118,VALID,1.23164,
2010-10-06, 01:02:04,VALID,1000.75,VALID,0,VALID,58.9941,VALID,922.967,VALID,31.6936,VALID,138,VALID,2.14414,
2010-10-06, 01:03:04,VALID,1000.77,VALID,0,VALID,59.9172,VALID,925.28,VALID,31.8692,VALID,103,VALID,2.24492,
2010-10-06, 01:04:04,VALID,1000.75,VALID,0,VALID,59.9172,VALID,924.576,VALID,31.9277,VALID,139,VALID,2.98438,
2010-10-06, 01:05:04,VALID,1000.77,VALID,0,VALID,59.3756,VALID,927.19,VALID,31.9277,VALID,116,VALID,3.02852,
2010-10-06, 01:06:04,VALID,1000.77,VALID,0,VALID,59.7494,VALID,922.766,VALID,32.0887,VALID,54,VALID,1.07383,
2010-10-06, 01:07:04,VALID,1000.74,VALID,0,VALID,58.9178,VALID,917.335,VALID,32.2619,VALID,108,VALID,1.23008,
2010-10-06, 01:08:04,VALID,1000.78,VALID,0,VALID,58.5517,VALID,910.396,VALID,32.5156,VALID,120,VALID,2.96523,
2010-10-06, 01:09:04,VALID,1000.79,VALID,0,VALID,58.75,VALID,911.201,VALID,32.2228,VALID,137,VALID,3.4707,
2010-10-06, 01:10:04,VALID,1000.74,VALID,0,VALID,58.9178,VALID,914.821,VALID,32.1033,VALID,79,VALID,1.3918,
2010-10-06, 01:11:04,VALID,1000.81,VALID,0,VALID,58.1244,VALID,914.821,VALID,32.0057,VALID,113,VALID,2.52578,
2010-10-06, 01:12:04,VALID,1000.75,VALID,0,VALID,58.483,VALID,907.48,VALID,31.8716,VALID,107,VALID,3.14648,
2010-10-06, 01:13:04,VALID,1000.79,VALID,0,VALID,60.1766,VALID,909.692,VALID,31.7326,VALID,110,VALID,2.83164,
2010-10-06, 01:14:04,VALID,1000.7,VALID,0,VALID,59.3756,VALID,910.095,VALID,31.6179,VALID,80,VALID,2.94375,
2010-10-06, 01:15:04,VALID,1000.81,VALID,0,VALID,60.0317,VALID,911,VALID,31.4984,VALID,103,VALID,2.88984,
2010-10-06, 01:16:04,VALID,1000.7,VALID,0,VALID,59.8104,VALID,911.402,VALID,31.5008,VALID,128,VALID,1.29414,
2010-10-06, 01:17:04,VALID,1000.74,VALID,0,VALID,60.8098,VALID,910.396,VALID,31.6374,VALID,107,VALID,1.31172,
2010-10-06, 01:18:04,VALID,1000.74,VALID,0,VALID,60.3902,VALID,906.676,VALID,31.813,VALID,86,VALID,1.85586,
2010-10-06, 01:19:04,VALID,1000.68,VALID,0,VALID,59.3832,VALID,902.854,VALID,31.813,VALID,145,VALID,2.54336,
2010-10-06, 01:20:04,VALID,1000.69,VALID,0,VALID,59.5434,VALID,905.77,VALID,31.8716,VALID,154,VALID,3.3207,
2010-10-06, 01:21:04,VALID,1000.67,VALID,0,VALID,60.6954,VALID,905.67,VALID,31.8911,VALID,118,VALID,3.2457,
2010-10-06, 01:22:04,VALID,1000.71,VALID,0,VALID,58.0939,VALID,907.581,VALID,31.9106,VALID,136,VALID,3.09687,
2010-10-06, 01:23:04,VALID,1000.7,VALID,0,VALID,60.6725,VALID,906.273,VALID,31.8716,VALID,130,VALID,2.62422,
2010-10-06, 01:24:04,VALID,1000.73,VALID,0,VALID,57.8727,VALID,906.474,VALID,31.7545,VALID,125,VALID,4.37656,
2010-10-06, 01:25:04,VALID,1000.7,VALID,0,VALID,59.2764,VALID,909.089,VALID,31.7545,VALID,133,VALID,2.61758,
2010-10-06, 01:26:04,VALID,1000.68,VALID,0,VALID,58.2389,VALID,900.34,VALID,31.7155,VALID,109,VALID,2.26875,
2010-10-06, 01:27:04,VALID,1000.63,VALID,0,VALID,60.2376,VALID,895.915,VALID,31.6179,VALID,118,VALID,1.13984,
2010-10-06, 01:28:04,VALID,1000.65,VALID,0,VALID,60.9319,VALID,900.139,VALID,31.9301,VALID,165,VALID,1.98555,
2010-10-06, 01:29:04,VALID,1000.66,VALID,0,VALID,60.5275,VALID,903.458,VALID,32.0082,VALID,124,VALID,2.69336,
2010-10-06, 01:30:04,VALID,1000.63,VALID,0,VALID,57.682,VALID,733.204,VALID,32.1643,VALID,131,VALID,2.84687,
2010-10-06, 01:31:04,VALID,1000.65,VALID,0,VALID,58.8339,VALID,948.409,VALID,32.0472,VALID,118,VALID,3.08437,
2010-10-06, 01:32:04,VALID,1000.65,VALID,0,VALID,58.8187,VALID,911.301,VALID,31.8106,VALID,128,VALID,4.4,
2010-10-06, 01:33:04,VALID,1000.62,VALID,0,VALID,59.1238,VALID,898.027,VALID,31.735,VALID,92,VALID,3.72148,
2010-10-06, 01:34:04,VALID,1000.61,VALID,0,VALID,61.1912,VALID,891.692,VALID,31.813,VALID,86,VALID,2.06719,
2010-10-06, 01:35:04,VALID,1000.66,VALID,0,VALID,59.49,VALID,888.172,VALID,31.9301,VALID,101,VALID,3.08984,
2010-10-06, 01:36:04,VALID,1000.64,VALID,0,VALID,58.9712,VALID,884.049,VALID,32.0057,VALID,110,VALID,2.62227,
2010-10-06, 01:37:04,VALID,1000.6,VALID,0,VALID,58.4677,VALID,879.021,VALID,31.9691,VALID,133,VALID,2.72305,
2010-10-06, 01:38:04,VALID,1000.62,VALID,0,VALID,58.8721,VALID,879.423,VALID,31.9887,VALID,101,VALID,2.9707,
2010-10-06, 01:39:04,VALID,1000.59,VALID,0,VALID,58.3991,VALID,877.412,VALID,31.774,VALID,137,VALID,2.32109,
2010-10-06, 01:40:04,VALID,1000.56,VALID,0,VALID,59.7265,VALID,876.305,VALID,31.774,VALID,112,VALID,2.37109,
2010-10-06, 01:41:04,VALID,1000.55,VALID,0,VALID,58.3533,VALID,872.082,VALID,31.8301,VALID,132,VALID,2.56484,
2010-10-06, 01:42:04,VALID,1000.57,VALID,0,VALID,59.1391,VALID,882.038,VALID,31.8911,VALID,151,VALID,2.5707,
2010-10-06, 01:43:04,VALID,1000.58,VALID,0,VALID,60.9776,VALID,895.915,VALID,31.9325,VALID,116,VALID,2.12617,
2010-10-06, 01:44:04,VALID,1000.6,VALID,0,VALID,59.5358,VALID,912.508,VALID,32.2228,VALID,104,VALID,2.27813,
2010-10-06, 01:45:04,VALID,1000.56,VALID,0,VALID,57.476,VALID,917.637,VALID,32.3009,VALID,136,VALID,2.28516,
2010-10-06, 01:46:04,VALID,1000.53,VALID,0,VALID,58.8492,VALID,899.938,VALID,32.1253,VALID,79,VALID,1.95742,
2010-10-06, 01:47:04,VALID,1000.51,VALID,0,VALID,58.1092,VALID,897.524,VALID,32.1814,VALID,58,VALID,0.791016,
2010-10-06, 01:48:04,VALID,1000.55,VALID,0,VALID,58.9484,VALID,873.389,VALID,32.379,VALID,90,VALID,1.69922,
2010-10-06, 01:49:04,VALID,1000.56,VALID,0,VALID,58.0329,VALID,867.355,VALID,32.457,VALID,77,VALID,1.88516,
2010-10-06, 01:50:04,VALID,1000.56,VALID,0,VALID,57.2853,VALID,871.076,VALID,32.6522,VALID,126,VALID,2.1668,
2010-10-06, 01:51:04,VALID,1000.5,VALID,0,VALID,55.8129,VALID,886.563,VALID,32.3985,VALID,129,VALID,3.1418,
2010-10-06, 01:52:04,VALID,1000.52,VALID,0,VALID,57.4912,VALID,883.848,VALID,32.2033,VALID,112,VALID,2.21094,
2010-10-06, 01:53:04,VALID,1000.56,VALID,0,VALID,58.338,VALID,887.569,VALID,32.0643,VALID,120,VALID,2.80703,
2010-10-06, 01:54:04,VALID,1000.51,VALID,0,VALID,58.2084,VALID,901.145,VALID,32.0082,VALID,124,VALID,3.41563,
2010-10-06, 01:55:04,VALID,1000.52,VALID,0,VALID,59.2459,VALID,620.473,VALID,31.8692,VALID,124,VALID,2.99141,
2010-10-06, 01:56:04,VALID,1000.56,VALID,0,VALID,58.9865,VALID,590.405,VALID,31.913,VALID,141,VALID,2.7082,
2010-10-06, 01:57:04,VALID,1000.6,VALID,0,VALID,58.6737,VALID,886.362,VALID,31.7179,VALID,128,VALID,2.91328,
2010-10-06, 01:58:04,VALID,1000.57,VALID,0,VALID,59.6655,VALID,897.223,VALID,31.6764,VALID,129,VALID,2.5,
2010-10-06, 01:59:04,VALID,1000.56,VALID,0,VALID,60.3673,VALID,901.547,VALID,31.6398,VALID,104,VALID,2.68633,
2010-10-06, 02:00:04,VALID,1000.57,VALID,0,VALID,59.2688,VALID,162.711,VALID,31.6569,VALID,127,VALID,2.88086,
2010-10-06, 02:01:04,VALID,1000.54,VALID,0,VALID,60.6115,VALID,876.607,VALID,31.4813,VALID,94,VALID,2.6832,
2010-10-06, 02:02:04,VALID,1000.53,VALID,0,VALID,61.031,VALID,863.031,VALID,31.5203,VALID,136,VALID,3.91406,
2010-10-06, 02:03:04,VALID,1000.56,VALID,0,VALID,61.3209,VALID,858.104,VALID,31.6398,VALID,103,VALID,2.28906,
2010-10-06, 02:04:04,VALID,1000.56,VALID,0,VALID,59.8028,VALID,847.142,VALID,31.6374,VALID,106,VALID,2.62852,
2010-10-06, 02:05:04,VALID,1000.5,VALID,0,VALID,57.3997,VALID,799.274,VALID,31.6788,VALID,126,VALID,2.49688,
2010-10-06, 02:06:04,VALID,1000.52,VALID,0,VALID,61.5422,VALID,415.627,VALID,31.6374,VALID,118,VALID,1.88242,
2010-10-06, 02:07:04,VALID,1000.52,VALID,0,VALID,59.1543,VALID,809.23,VALID,31.6764,VALID,109,VALID,3.03008,
2010-10-06, 02:08:04,VALID,1000.55,VALID,0,VALID,57.7811,VALID,802.895,VALID,31.5984,VALID,102,VALID,4.19609,
2010-10-06, 02:09:04,VALID,1000.5,VALID,0,VALID,58.6737,VALID,802.693,VALID,31.5399,VALID,130,VALID,2.36406,
2010-10-06, 02:10:04,VALID,1000.55,VALID,0,VALID,59.8257,VALID,792.838,VALID,31.5789,VALID,118,VALID,3.2668,
2010-10-06, 02:11:04,VALID,1000.53,VALID,0,VALID,60.5657,VALID,780.268,VALID,31.5594,VALID,125,VALID,2.13594,
2010-10-06, 02:12:04,VALID,1000.46,VALID,0,VALID,59.5816,VALID,771.217,VALID,31.774,VALID,97,VALID,0.616406,
2010-10-06, 02:13:04,VALID,1000.46,VALID,0,VALID,57.3234,VALID,768.401,VALID,32.0082,VALID,172,VALID,1.98867,
2010-10-06, 02:14:04,VALID,1000.48,VALID,0,VALID,58.7195,VALID,763.876,VALID,32.0667,VALID,93,VALID,2.27422,
2010-10-06, 02:15:04,VALID,1000.45,VALID,0,VALID,59.4137,VALID,752.513,VALID,32.1253,VALID,118,VALID,2.20273,
2010-10-06, 02:16:04,VALID,1000.47,VALID,0,VALID,59.3679,VALID,753.518,VALID,32.1472,VALID,87,VALID,0.892187,
2010-10-06, 02:17:04,VALID,1000.46,VALID,0,VALID,57.6286,VALID,752.01,VALID,32.3009,VALID,94,VALID,0.652734,
2010-10-06, 02:18:04,VALID,1000.43,VALID,0,VALID,57.3844,VALID,748.591,VALID,32.3619,VALID,136,VALID,1.70078,
2010-10-06, 02:19:04,VALID,1000.43,VALID,0,VALID,56.7665,VALID,747.082,VALID,32.2033,VALID,136,VALID,4.20234,
2010-10-06, 02:20:04,VALID,1000.4,VALID,0,VALID,59.1315,VALID,741.953,VALID,31.7545,VALID,133,VALID,2.44141,
2010-10-06, 02:21:04,VALID,1000.36,VALID,0,VALID,59.4442,VALID,744.367,VALID,31.6764,VALID,116,VALID,2.64219,
2010-10-06, 02:22:04,VALID,1000.35,VALID,0,VALID,59.0246,VALID,740.445,VALID,31.6936,VALID,137,VALID,2.35234,
2010-10-06, 02:23:04,VALID,1000.34,VALID,0,VALID,58.4677,VALID,742.155,VALID,31.696,VALID,108,VALID,2.0543,
2010-10-06, 02:24:04,VALID,1000.37,VALID,0,VALID,59.8104,VALID,730.087,VALID,31.6569,VALID,127,VALID,2.77187,
2010-10-06, 02:25:04,VALID,1000.33,VALID,0,VALID,59.963,VALID,695.292,VALID,31.5203,VALID,109,VALID,1.84531,
2010-10-06, 02:26:04,VALID,1000.36,VALID,0,VALID,59.223,VALID,699.918,VALID,31.5789,VALID,96,VALID,3.17539,
2010-10-06, 02:27:04,VALID,1000.33,VALID,0,VALID,59.9172,VALID,697.907,VALID,31.4057,VALID,87,VALID,3.81367,
2010-10-06, 02:28:04,VALID,1000.3,VALID,0,VALID,59.3679,VALID,695.393,VALID,31.3666,VALID,68,VALID,2.6582,
2010-10-06, 02:29:04,VALID,1000.21,VALID,0,VALID,60.5886,VALID,665.727,VALID,31.3447,VALID,165,VALID,3.47813,
2010-10-06, 02:30:04,VALID,1000.29,VALID,0,VALID,60.9776,VALID,665.928,VALID,31.5203,VALID,149,VALID,2.82734,
2010-10-06, 02:31:04,VALID,1000.28,VALID,0,VALID,61.6719,VALID,661,VALID,31.5203,VALID,141,VALID,2.77734,
2010-10-06, 02:32:04,VALID,1000.24,VALID,0,VALID,61.3667,VALID,667.034,VALID,31.6764,VALID,106,VALID,2.14297,
2010-10-06, 02:33:04,VALID,1000.26,VALID,0,VALID,59.3832,VALID,662.81,VALID,31.7764,VALID,133,VALID,2.59063,
2010-10-06, 02:34:04,VALID,1000.23,VALID,0,VALID,59.1849,VALID,660.196,VALID,31.696,VALID,96,VALID,1.73633,
2010-10-06, 02:35:04,VALID,1000.22,VALID,0,VALID,60.3292,VALID,656.978,VALID,31.6374,VALID,125,VALID,2.33555,
2010-10-06, 02:36:04,VALID,1000.22,VALID,0,VALID,59.2383,VALID,670.755,VALID,31.5399,VALID,114,VALID,2.51641,
2010-10-06, 02:37:04,VALID,1000.2,VALID,0,VALID,59.6273,VALID,676.588,VALID,31.4252,VALID,112,VALID,2.66914,
2010-10-06, 02:38:04,VALID,1000.17,VALID,0,VALID,60.1842,VALID,683.929,VALID,31.3276,VALID,112,VALID,2.10234,
2010-10-06, 02:39:04,VALID,1000.22,VALID,0,VALID,60.375,VALID,672.967,VALID,31.3081,VALID,120,VALID,2.41367,
2010-10-06, 02:40:04,VALID,1000.15,VALID,0,VALID,60.6191,VALID,664.319,VALID,31.2301,VALID,114,VALID,2.49492,
2010-10-06, 02:41:04,VALID,1000.18,VALID,0,VALID,60.97,VALID,653.86,VALID,31.1496,VALID,110,VALID,3.36445,
2010-10-06, 02:42:04,VALID,1000.12,VALID,0,VALID,61.3972,VALID,656.475,VALID,31.1715,VALID,98,VALID,1.84883,
2010-10-06, 02:43:04,VALID,1000.12,VALID,0,VALID,60.3521,VALID,661.101,VALID,31.1692,VALID,133,VALID,3.38516,
2010-10-06, 02:44:04,VALID,1000.09,VALID,0,VALID,61.0387,VALID,649.335,VALID,31.1301,VALID,86,VALID,2.30781,
2010-10-06, 02:45:04,VALID,1000.09,VALID,0,VALID,60.8708,VALID,653.76,VALID,31.1301,VALID,97,VALID,2.84063,
2010-10-06, 02:46:04,VALID,1000.09,VALID,0,VALID,61.5574,VALID,645.815,VALID,31.2301,VALID,158,VALID,3.19453,
2010-10-06, 02:47:04,VALID,1000.09,VALID,0,VALID,62.122,VALID,647.123,VALID,31.1887,VALID,135,VALID,2.72539,
2010-10-06, 02:48:04,VALID,1000.1,VALID,0,VALID,61.8397,VALID,649.335,VALID,31.3862,VALID,130,VALID,2.21758,
2010-10-06, 02:49:04,VALID,1000.02,VALID,0,VALID,61.9847,VALID,651.547,VALID,31.3081,VALID,130,VALID,3.33672,
2010-10-06, 02:50:04,VALID,1000.14,VALID,0,VALID,62.1449,VALID,654.966,VALID,31.2301,VALID,120,VALID,2.94531,
2010-10-06, 02:51:04,VALID,1000.14,VALID,0,VALID,62.2746,VALID,631.234,VALID,31.2496,VALID,126,VALID,2.52422,
2010-10-06, 02:52:04,VALID,1000.12,VALID,0,VALID,61.8778,VALID,619.769,VALID,31.3057,VALID,103,VALID,1.71641,
2010-10-06, 02:53:04,VALID,1000.11,VALID,0,VALID,61.3515,VALID,611.523,VALID,31.3666,VALID,96,VALID,1.85117,
2010-10-06, 02:54:04,VALID,1000.17,VALID,0,VALID,60.2453,VALID,581.857,VALID,31.4033,VALID,110,VALID,2.12617,
2010-10-06, 02:55:04,VALID,1000.15,VALID,0,VALID,60.0927,VALID,581.354,VALID,31.2496,VALID,108,VALID,3.93086,
2010-10-06, 02:56:04,VALID,1000.14,VALID,0,VALID,60.909,VALID,532.179,VALID,31.0911,VALID,134,VALID,2.6043,
2010-10-06, 02:57:04,VALID,1000.1,VALID,0,VALID,60.6801,VALID,489.742,VALID,31.0326,VALID,133,VALID,2.28984,
2010-10-06, 02:58:04,VALID,1000.12,VALID,0,VALID,61.7863,VALID,514.782,VALID,31.113,VALID,102,VALID,2.0707,
2010-10-06, 02:59:04,VALID,1000.07,VALID,0,VALID,60.6572,VALID,549.979,VALID,31.0716,VALID,145,VALID,3.71406,
2010-10-06, 03:00:04,VALID,1000.12,VALID,0,VALID,61.4506,VALID,562.65,VALID,31.1301,VALID,109,VALID,2.89258,
2010-10-06, 03:01:04,VALID,1000.15,VALID,0,VALID,60.0698,VALID,574.918,VALID,31.0545,VALID,134,VALID,3.14023,
2010-10-06, 03:02:04,VALID,1000.18,VALID,0,VALID,61.1989,VALID,557.219,VALID,31.0716,VALID,93,VALID,2.45469,
2010-10-06, 03:03:04,VALID,1000.12,VALID,0,VALID,62.328,VALID,563.253,VALID,31.0326,VALID,117,VALID,1.60273,
2010-10-06, 03:04:04,VALID,1000.14,VALID,0,VALID,61.4277,VALID,578.941,VALID,31.0716,VALID,139,VALID,2.40313,
2010-10-06, 03:05:04,VALID,1000.13,VALID,0,VALID,61.9541,VALID,565.566,VALID,31.1692,VALID,138,VALID,1.67422,
2010-10-06, 03:06:04,VALID,1000.11,VALID,0,VALID,61.382,VALID,518.905,VALID,31.1301,VALID,108,VALID,2.42969,
2010-10-06, 03:07:04,VALID,1000.11,VALID,0,VALID,61.2752,VALID,457.36,VALID,31.0521,VALID,124,VALID,2.62695,
2010-10-06, 03:08:04,VALID,1000.13,VALID,0,VALID,61.6566,VALID,418.241,VALID,30.9327,VALID,105,VALID,2.86602,
2010-10-06, 03:09:04,VALID,1000.12,VALID,0,VALID,61.8702,VALID,404.967,VALID,30.9351,VALID,126,VALID,3.55156,
2010-10-06, 03:10:04,VALID,1000.11,VALID,0,VALID,61.7863,VALID,427.393,VALID,30.857,VALID,128,VALID,2.48867,
2010-10-06, 03:11:04,VALID,1000.08,VALID,0,VALID,61.0463,VALID,429.002,VALID,30.7985,VALID,123,VALID,3.23242,
2010-10-06, 03:12:04,VALID,1000.08,VALID,0,VALID,61.7024,VALID,425.784,VALID,30.7033,VALID,143,VALID,3.37266,
2010-10-06, 03:13:04,VALID,1000.08,VALID,0,VALID,62.717,VALID,425.482,VALID,30.6815,VALID,86,VALID,2.33984,
2010-10-06, 03:14:04,VALID,1000.11,VALID,0,VALID,62.1296,VALID,406.174,VALID,30.7205,VALID,134,VALID,2.83594,
2010-10-06, 03:15:04,VALID,1000.1,VALID,0,VALID,63.5486,VALID,356.496,VALID,30.701,VALID,117,VALID,2.34492,
2010-10-06, 03:16:04,VALID,1000.13,VALID,0,VALID,62.3661,VALID,366.552,VALID,30.701,VALID,84,VALID,2.29219,
2010-10-06, 03:17:04,VALID,1000.12,VALID,0,VALID,63.2053,VALID,418.141,VALID,30.779,VALID,111,VALID,1.38672,
2010-10-06, 03:18:04,VALID,1000.17,VALID,0,VALID,62.9383,VALID,415.023,VALID,30.779,VALID,111,VALID,2.46133,
2010-10-06, 03:19:04,VALID,1000.15,VALID,0,VALID,63.0908,VALID,445.796,VALID,30.7618,VALID,109,VALID,2.35898,
2010-10-06, 03:20:04,VALID,1000.11,VALID,0,VALID,63.068,VALID,466.512,VALID,30.6643,VALID,114,VALID,2.63672,
2010-10-06, 03:21:04,VALID,1000.12,VALID,0,VALID,62.7475,VALID,461.785,VALID,30.6815,VALID,113,VALID,2.34141,
2010-10-06, 03:22:04,VALID,1000.11,VALID,0,VALID,63.9148,VALID,471.439,VALID,30.6815,VALID,111,VALID,2.08555,
2010-10-06, 03:23:04,VALID,1000.12,VALID,0,VALID,63.2968,VALID,440.566,VALID,30.6815,VALID,121,VALID,2.34219,
2010-10-06, 03:24:04,VALID,1000.09,VALID,0,VALID,63.3197,VALID,402.553,VALID,30.74,VALID,135,VALID,2.43281,
2010-10-06, 03:25:04,VALID,1000.09,VALID,0,VALID,62.9993,VALID,437.851,VALID,30.7572,VALID,101,VALID,2.16953,
2010-10-06, 03:26:04,VALID,1000.08,VALID,0,VALID,63.93,VALID,449.416,VALID,30.701,VALID,111,VALID,2.91211,
2010-10-06, 03:27:04,VALID,1000.04,VALID,0,VALID,64.2886,VALID,435.236,VALID,30.6229,VALID,144,VALID,2.85586,
2010-10-06, 03:28:04,VALID,1000.09,VALID,0,VALID,63.9376,VALID,439.963,VALID,30.5816,VALID,143,VALID,2.72852,
2010-10-06, 03:29:04,VALID,1000.07,VALID,0,VALID,65.1049,VALID,436.343,VALID,30.701,VALID,130,VALID,1.76797,
2010-10-06, 03:30:04,VALID,1000.07,VALID,0,VALID,63.2434,VALID,417.135,VALID,30.779,VALID,96,VALID,2.21719,
2010-10-06, 03:31:04,VALID,1000.07,VALID,0,VALID,62.595,VALID,427.393,VALID,30.662,VALID,84,VALID,2.6332,
2010-10-06, 03:32:04,VALID,1000.08,VALID,0,VALID,64.464,VALID,434.935,VALID,30.6815,VALID,112,VALID,2.11016,
2010-10-06, 03:33:04,VALID,1000.09,VALID,0,VALID,64.7005,VALID,435.538,VALID,30.5839,VALID,119,VALID,2.35938,
2010-10-06, 03:34:04,VALID,1000.09,VALID,0,VALID,62.717,VALID,444.991,VALID,30.6229,VALID,110,VALID,2.76602,
2010-10-06, 03:35:04,VALID,1000.1,VALID,0,VALID,63.7012,VALID,440.969,VALID,30.5644,VALID,130,VALID,2.47969,